Date,Installs,Update checks
2014-12-13,1,0
2014-12-14,12,6
2014-12-15,5,8
2014-12-16,1,8
2014-12-17,2,8
2014-12-18,2,12
2014-12-19,1,12
2014-12-20,0,14
2014-12-21,3,14
2014-12-22,1,14
2014-12-23,0,11
2014-12-24,1,7
2014-12-25,2,11
2014-12-26,3,9
2014-12-27,1,16
2014-12-28,0,11
2014-12-29,0,13
2014-12-30,0,13
2014-12-31,1,12
2015-01-01,1,12
2015-01-02,2,12
2015-01-03,0,12
2015-01-04,2,13
2015-01-05,1,16
2015-01-06,0,13
2015-01-07,0,19
2015-01-08,1,9
2015-01-09,0,12
2015-01-10,0,11
2015-01-11,0,12
2015-01-12,0,14
2015-01-13,1,16
2015-01-14,0,13
2015-01-15,0,16
2015-01-16,0,10
2015-01-17,1,15
2015-01-18,1,12
2015-01-19,1,21
2015-01-20,0,13
2015-01-21,1,14
2015-01-22,0,16
2015-01-23,0,14
2015-01-24,0,14
2015-01-25,4,14
2015-01-26,7,24
2015-01-27,4,22
2015-01-28,2,18
2015-01-29,0,20
2015-01-30,1,19
2015-01-31,0,24
2015-02-01,1,16
2015-02-02,0,22
2015-02-03,1,15
2015-02-04,0,18
2015-02-05,0,13
2015-02-06,2,15
2015-02-07,0,18
2015-02-08,0,18
2015-02-09,0,20
2015-02-10,0,15
2015-02-11,0,19
2015-02-12,0,18
2015-02-13,0,13
2015-02-14,1,16
2015-02-15,0,16
2015-02-16,1,19
2015-02-17,1,16
2015-02-18,1,18
2015-02-19,0,20
2015-02-20,1,19
2015-02-21,0,21
2015-02-22,0,16
2015-02-23,0,17
2015-02-24,0,20
2015-02-25,0,23
2015-02-26,2,13
2015-02-27,3,18
2015-02-28,0,22
2015-03-01,0,23
2015-03-02,0,20
2015-03-03,0,25
2015-03-04,0,24
2015-03-05,1,24
2015-03-06,0,17
2015-03-07,0,20
2015-03-08,1,20
2015-03-09,0,17
2015-03-10,1,26
2015-03-11,0,20
2015-03-12,1,24
2015-03-13,0,18
2015-03-14,0,25
2015-03-15,0,20
2015-03-16,0,20
2015-03-17,0,22
2015-03-18,0,15
2015-03-19,0,15
2015-03-20,1,22
2015-03-21,0,17
2015-03-22,0,16
2015-03-23,0,17
2015-03-24,0,21
2015-03-25,0,14
2015-03-26,0,20
2015-03-27,0,18
2015-03-28,0,16
2015-03-29,0,11
2015-03-30,0,13
2015-03-31,0,16
2015-04-01,0,15
2015-04-02,0,14
2015-04-03,0,9
2015-04-04,0,16
2015-04-05,0,8
2015-04-06,0,18
2015-04-07,2,16
2015-04-08,0,19
2015-04-09,1,15
2015-04-10,0,21
2015-04-11,0,15
2015-04-12,0,18
2015-04-13,0,14
2015-04-14,0,13
2015-04-15,1,17
2015-04-16,0,16
2015-04-17,0,20
2015-04-18,0,15
2015-04-19,4,15
2015-04-20,0,16
2015-04-21,0,16
2015-04-22,0,19
2015-04-23,0,20
2015-04-24,0,16
2015-04-25,0,20
2015-04-26,0,14
2015-04-27,0,15
2015-04-28,0,16
2015-04-29,1,22
2015-04-30,1,14
2015-05-01,0,20
2015-05-02,2,22
2015-05-03,0,25
2015-05-04,0,25
2015-05-05,1,22
2015-05-06,0,16
2015-05-07,0,18
2015-05-08,0,19
2015-05-09,0,14
2015-05-10,0,20
2015-05-11,1,22
2015-05-12,1,13
2015-05-13,0,18
2015-05-14,0,13
2015-05-15,0,22
2015-05-16,0,15
2015-05-17,0,12
2015-05-18,1,16
2015-05-19,0,17
2015-05-20,0,17
2015-05-21,0,16
2015-05-22,1,20
2015-05-23,0,21
2015-05-24,2,17
2015-05-25,0,17
2015-05-26,0,23
2015-05-27,0,12
2015-05-28,3,10
2015-05-29,3,24
2015-05-30,0,22
2015-05-31,1,17
2015-06-01,1,18
2015-06-02,1,18
2015-06-03,1,20
2015-06-04,1,21
2015-06-05,3,24
2015-06-06,3,18
2015-06-07,0,21
2015-06-08,0,24
2015-06-09,1,19
2015-06-10,0,20
2015-06-11,0,22
2015-06-12,0,14
2015-06-13,0,22
2015-06-14,0,22
2015-06-15,0,8
2015-06-16,0,23
2015-06-17,0,16
2015-06-18,3,18
2015-06-19,3,16
2015-06-20,2,17
2015-06-21,3,15
2015-06-22,2,23
2015-06-23,0,18
2015-06-24,1,26
2015-06-25,0,16
2015-06-26,0,22
2015-06-27,0,19
2015-06-28,1,14
2015-06-29,0,24
2015-06-30,0,18
2015-07-01,0,21
2015-07-02,1,24
2015-07-03,0,26
2015-07-04,0,22
2015-07-05,1,16
2015-07-06,1,24
2015-07-07,0,21
2015-07-08,1,22
2015-07-09,1,23
2015-07-10,0,20
2015-07-11,0,21
2015-07-12,0,19
2015-07-13,0,22
2015-07-14,0,20
2015-07-15,1,21
2015-07-16,0,17
2015-07-17,1,19
2015-07-18,0,11
2015-07-19,0,19
2015-07-20,0,20
2015-07-21,0,18
2015-07-22,0,11
2015-07-23,0,20
2015-07-24,1,25
2015-07-25,0,22
2015-07-26,1,20
2015-07-27,0,23
2015-07-28,0,20
2015-07-29,0,17
2015-07-30,0,18
2015-07-31,0,18
2015-08-01,1,25
2015-08-02,5,18
2015-08-03,0,29
2015-08-04,1,18
2015-08-05,1,17
2015-08-06,0,25
2015-08-07,1,29
2015-08-08,0,20
2015-08-09,0,19
2015-08-10,0,26
2015-08-11,0,24
2015-08-12,0,27
2015-08-13,0,25
2015-08-14,0,22
2015-08-15,0,17
2015-08-16,0,18
2015-08-17,0,20
2015-08-18,0,23
2015-08-19,0,22
2015-08-20,0,24
2015-08-21,0,19
2015-08-22,2,17
2015-08-23,2,19
2015-08-24,3,20
2015-08-25,2,22
2015-08-26,1,17
2015-08-27,3,22
2015-08-28,2,23
2015-08-29,1,25
2015-08-30,1,21
2015-08-31,3,27
2015-09-01,0,24
2015-09-02,0,29
2015-09-03,0,19
2015-09-04,1,28
2015-09-05,3,28
2015-09-06,2,25
2015-09-07,0,29
2015-09-08,0,28
2015-09-09,0,27
2015-09-10,0,32
2015-09-11,2,30
2015-09-12,0,33
2015-09-13,0,22
2015-09-14,0,28
2015-09-15,0,12
2015-09-16,1,30
2015-09-17,0,25
2015-09-18,1,23
2015-09-19,0,26
2015-09-20,1,22
2015-09-21,2,32
2015-09-22,2,28
2015-09-23,1,31
2015-09-24,1,24
2015-09-25,2,29
2015-09-26,0,22
2015-09-27,0,20
2015-09-28,1,34
2015-09-29,1,26
2015-09-30,2,26
2015-10-01,1,25
2015-10-02,0,26
2015-10-03,0,22
2015-10-04,0,22
2015-10-05,1,30
2015-10-06,0,27
2015-10-07,2,25
2015-10-08,1,29
2015-10-09,1,25
2015-10-10,1,32
2015-10-11,0,32
2015-10-12,0,27
2015-10-13,1,32
2015-10-14,0,36
2015-10-15,2,26
2015-10-16,2,32
2015-10-17,0,27
2015-10-18,0,34
2015-10-19,0,32
2015-10-20,0,30
2015-10-21,0,30
2015-10-22,0,30
2015-10-23,0,22
2015-10-24,0,34
2015-10-25,0,19
2015-10-26,0,38
2015-10-27,3,21
2015-10-28,0,38
2015-10-29,0,16
2015-10-30,0,36
2015-10-31,0,17
2015-11-01,0,31
2015-11-02,1,23
2015-11-03,0,30
2015-11-04,0,22
2015-11-05,0,25
2015-11-06,0,24
2015-11-07,2,30
2015-11-08,1,17
2015-11-09,0,27
2015-11-10,1,25
2015-11-11,0,22
2015-11-12,2,19
2015-11-13,1,20
2015-11-14,3,22
2015-11-15,0,20
2015-11-16,0,21
2015-11-17,0,21
2015-11-18,0,21
2015-11-19,0,37
2015-11-20,1,19
2015-11-21,1,24
2015-11-22,0,20
2015-11-23,1,26
2015-11-24,0,26
2015-11-25,0,27
2015-11-26,2,18
2015-11-27,3,26
2015-11-28,0,27
2015-11-29,0,24
2015-11-30,0,23
2015-12-01,1,24
2015-12-02,0,18
2015-12-03,0,24
2015-12-04,0,19
2015-12-05,1,27
2015-12-06,1,15
2015-12-07,0,28
2015-12-08,0,14
2015-12-09,0,22
2015-12-10,3,25
2015-12-11,0,21
2015-12-12,0,16
2015-12-13,1,21
2015-12-14,0,18
2015-12-15,1,31
2015-12-16,4,22
2015-12-17,0,29
2015-12-18,0,19
2015-12-19,2,30
2015-12-20,1,24
2015-12-21,1,24
2015-12-22,1,21
2015-12-23,0,22
2015-12-24,1,21
2015-12-25,0,21
2015-12-26,1,24
2015-12-27,0,19
2015-12-28,0,22
2015-12-29,0,22
2015-12-30,1,20
2015-12-31,0,24
2016-01-01,0,19
2016-01-02,1,25
2016-01-03,1,24
2016-01-04,0,28
2016-01-05,0,16
2016-01-06,0,30
2016-01-07,1,21
2016-01-08,1,24
2016-01-09,0,20
2016-01-10,0,26
2016-01-11,1,23
2016-01-12,1,24
2016-01-13,0,25
2016-01-14,1,20
2016-01-15,0,26
2016-01-16,0,23
2016-01-17,1,21
2016-01-18,1,24
2016-01-19,2,19
2016-01-20,0,26
2016-01-21,0,17
2016-01-22,0,27
2016-01-23,0,14
2016-01-24,1,21
2016-01-25,2,19
2016-01-26,2,21
2016-01-27,1,18
2016-01-28,0,26
2016-01-29,0,24
2016-01-30,0,26
2016-01-31,1,18
2016-02-01,2,24
2016-02-02,0,19
2016-02-03,1,27
2016-02-04,4,15
2016-02-05,4,28
2016-02-06,0,18
2016-02-07,0,23
2016-02-08,1,19
2016-02-09,2,27
2016-02-10,0,20
2016-02-11,0,23
2016-02-12,1,25
2016-02-13,3,20
2016-02-14,1,21
2016-02-15,0,22
2016-02-16,1,18
2016-02-17,0,19
2016-02-18,0,19
2016-02-19,1,22
2016-02-20,1,19
2016-02-21,1,21
2016-02-22,0,19
2016-02-23,1,27
2016-02-24,0,19
2016-02-25,0,27
2016-02-26,1,18
2016-02-27,1,25
2016-02-28,0,19
2016-02-29,0,23
2016-03-01,0,25
2016-03-02,0,18
2016-03-03,0,17
2016-03-04,1,24
2016-03-05,0,21
2016-03-06,1,22
2016-03-07,1,22
2016-03-08,0,22
2016-03-09,0,24
2016-03-10,2,19
2016-03-11,0,21
2016-03-12,2,19
2016-03-13,1,22
2016-03-14,0,25
2016-03-15,0,19
2016-03-16,1,22
2016-03-17,0,21
2016-03-18,2,23
2016-03-19,1,24
2016-03-20,0,18
2016-03-21,1,28
2016-03-22,1,20
2016-03-23,0,23
2016-03-24,0,24
2016-03-25,1,29
2016-03-26,1,29
2016-03-27,0,19
2016-03-28,0,27
2016-03-29,1,23
2016-03-30,0,28
2016-03-31,1,21
2016-04-01,0,30
2016-04-02,0,21
2016-04-03,0,23
2016-04-04,2,27
2016-04-05,0,26
2016-04-06,1,22
2016-04-07,0,28
2016-04-08,0,27
2016-04-09,1,25
2016-04-10,0,18
2016-04-11,2,28
2016-04-12,1,23
2016-04-13,1,32
2016-04-14,1,32
2016-04-15,0,32
2016-04-16,1,23
2016-04-17,0,25
2016-04-18,0,25
2016-04-19,2,28
2016-04-20,2,31
2016-04-21,2,30
2016-04-22,0,23
2016-04-23,2,20
2016-04-24,2,24
2016-04-25,1,33
2016-04-26,0,24
2016-04-27,3,30
2016-04-28,3,23
2016-04-29,3,30
2016-04-30,2,26
2016-05-01,0,27
2016-05-02,2,29
2016-05-03,0,29
2016-05-04,0,30
2016-05-05,0,33
2016-05-06,0,28
2016-05-07,0,25
2016-05-08,0,23
2016-05-09,0,31
2016-05-10,0,31
2016-05-11,1,30
2016-05-12,1,30
2016-05-13,0,33
2016-05-14,0,28
2016-05-15,0,27
2016-05-16,1,29
2016-05-17,0,29
2016-05-18,0,41
2016-05-19,2,25
2016-05-20,0,43
2016-05-21,0,25
2016-05-22,1,28
2016-05-23,0,38
2016-05-24,1,32
2016-05-25,1,47
2016-05-26,1,36
2016-05-27,1,52
2016-05-28,0,40
2016-05-29,2,35
2016-05-30,1,44
2016-05-31,0,51
2016-06-01,1,39
2016-06-02,1,53
2016-06-03,2,47
2016-06-04,0,38
2016-06-05,0,44
2016-06-06,0,47
2016-06-07,0,54
2016-06-08,1,42
2016-06-09,1,55
2016-06-10,0,39
2016-06-11,1,41
2016-06-12,0,38
2016-06-13,0,50
2016-06-14,0,53
2016-06-15,0,52
2016-06-16,1,49
2016-06-17,0,49
2016-06-18,1,42
2016-06-19,1,38
2016-06-20,0,53
2016-06-21,1,50
2016-06-22,1,55
2016-06-23,1,43
2016-06-24,0,46
2016-06-25,2,44
2016-06-26,0,44
2016-06-27,1,43
2016-06-28,1,47
2016-06-29,0,49
2016-06-30,0,44
2016-07-01,0,48
2016-07-02,1,37
2016-07-03,0,41
2016-07-04,0,44
2016-07-05,0,38
2016-07-06,0,43
2016-07-07,0,35
2016-07-08,1,45
2016-07-09,1,28
2016-07-10,0,41
2016-07-11,0,45
2016-07-12,1,40
2016-07-13,0,41
2016-07-14,0,45
2016-07-15,0,35
2016-07-16,0,38
2016-07-17,0,36
2016-07-18,0,46
2016-07-19,0,39
2016-07-20,1,51
2016-07-21,0,47
2016-07-22,0,43
2016-07-23,0,39
2016-07-24,1,42
2016-07-25,1,44
2016-07-26,1,36
2016-07-27,1,46
2016-07-28,0,36
2016-07-29,0,41
2016-07-30,0,34
2016-07-31,1,30
2016-08-01,1,45
2016-08-02,1,34
2016-08-03,1,47
2016-08-04,1,42
2016-08-05,1,48
2016-08-06,2,26
2016-08-07,1,50
2016-08-08,0,35
2016-08-09,0,41
2016-08-10,0,40
2016-08-11,1,40
2016-08-12,1,46
2016-08-13,1,46
2016-08-14,0,41
2016-08-15,1,49
2016-08-16,0,50
2016-08-17,0,47
2016-08-18,0,46
2016-08-19,0,44
2016-08-20,1,46
2016-08-21,1,47
2016-08-22,6,56
2016-08-23,2,52
2016-08-24,0,53
2016-08-25,0,50
2016-08-26,1,41
2016-08-27,4,52
2016-08-28,0,49
2016-08-29,0,61
2016-08-30,0,52
2016-08-31,0,55
2016-09-01,1,56
2016-09-02,0,52
2016-09-03,1,47
2016-09-04,0,47
2016-09-05,0,47
2016-09-06,0,55
2016-09-07,1,42
2016-09-08,2,63
2016-09-09,1,52
2016-09-10,0,49
2016-09-11,1,39
2016-09-12,1,57
2016-09-13,0,45
2016-09-14,0,69
2016-09-15,0,49
2016-09-16,2,64
2016-09-17,1,47
2016-09-18,0,58
2016-09-19,0,60
2016-09-20,1,68
2016-09-21,0,48
2016-09-22,0,71
2016-09-23,1,56
2016-09-24,0,47
2016-09-25,0,51
2016-09-26,0,48
2016-09-27,1,57
2016-09-28,2,54
2016-09-29,2,47
2016-09-30,1,66
2016-10-01,0,46
2016-10-02,1,59
2016-10-03,0,53
2016-10-04,0,59
2016-10-05,0,55
2016-10-06,0,56
2016-10-07,0,61
2016-10-08,1,57
2016-10-09,1,51
2016-10-10,0,63
2016-10-11,3,53
2016-10-12,0,56
2016-10-13,0,60
2016-10-14,1,53
2016-10-15,1,56
2016-10-16,1,49
2016-10-17,3,50
2016-10-18,0,57
2016-10-19,1,52
2016-10-20,0,61
2016-10-21,3,57
2016-10-22,1,61
2016-10-23,1,53
2016-10-24,0,67
2016-10-25,1,54
2016-10-26,1,66
2016-10-27,1,63
2016-10-28,3,69
2016-10-29,1,50
2016-10-30,1,61
2016-10-31,1,55
2016-11-01,1,66
2016-11-02,1,59
2016-11-03,1,61
2016-11-04,0,53
2016-11-05,0,50
2016-11-06,1,51
2016-11-07,0,60
2016-11-08,1,58
2016-11-09,2,55
2016-11-10,0,57
2016-11-11,3,52
2016-11-12,2,59
2016-11-13,0,48
2016-11-14,2,61
2016-11-15,2,64
2016-11-16,1,57
2016-11-17,0,62
2016-11-18,0,59
2016-11-19,0,57
2016-11-20,1,55
2016-11-21,0,73
2016-11-22,0,60
2016-11-23,2,70
2016-11-24,1,53
2016-11-25,0,67
2016-11-26,1,49
2016-11-27,1,59
2016-11-28,3,58
2016-11-29,1,74
2016-11-30,0,64
2016-12-01,1,59
2016-12-02,3,62
2016-12-03,1,62
2016-12-04,3,52
2016-12-05,2,73
2016-12-06,0,56
2016-12-07,2,69
2016-12-08,0,59
2016-12-09,1,62
2016-12-10,0,56
2016-12-11,3,61
2016-12-12,2,57
2016-12-13,1,66
2016-12-14,2,63
2016-12-15,0,65
2016-12-16,2,63
2016-12-17,1,58
2016-12-18,0,64
2016-12-19,0,73
2016-12-20,0,63
2016-12-21,1,67
2016-12-22,1,60
2016-12-23,2,63
2016-12-24,0,63
2016-12-25,0,59
2016-12-26,0,60
2016-12-27,1,68
2016-12-28,1,64
2016-12-29,0,69
2016-12-30,0,54
2016-12-31,0,57
2017-01-01,0,53
2017-01-02,1,63
2017-01-03,1,55
2017-01-04,0,70
2017-01-05,0,54
2017-01-06,2,59
2017-01-07,1,60
2017-01-08,1,53
2017-01-09,0,64
2017-01-10,1,59
2017-01-11,0,68
2017-01-12,0,64
2017-01-13,0,71
2017-01-14,2,55
2017-01-15,2,58
2017-01-16,0,70
2017-01-17,0,67
2017-01-18,0,57
2017-01-19,0,72
2017-01-20,0,66
2017-01-21,0,70
2017-01-22,0,57
2017-01-23,0,73
2017-01-24,1,60
2017-01-25,0,72
2017-01-26,0,57
2017-01-27,2,73
2017-01-28,1,49
2017-01-29,1,61
2017-01-30,0,62
2017-01-31,1,57
2017-02-01,0,67
2017-02-02,2,65
2017-02-03,0,69
2017-02-04,0,59
2017-02-05,1,63
2017-02-06,0,70
2017-02-07,1,69
2017-02-08,1,62
2017-02-09,1,75
2017-02-10,1,63
2017-02-11,0,75
2017-02-12,0,62
2017-02-13,0,82
2017-02-14,0,67
2017-02-15,1,73
2017-02-16,0,58
2017-02-17,0,70
2017-02-18,0,59
2017-02-19,2,63
2017-02-20,0,65
2017-02-21,0,69
2017-02-22,0,62
2017-02-23,0,75
2017-02-24,2,62
2017-02-25,0,62
2017-02-26,2,57
2017-02-27,0,68
2017-02-28,0,62
2017-03-01,0,72
2017-03-02,3,58
2017-03-03,1,81
2017-03-04,0,59
2017-03-05,1,65
2017-03-06,0,71
2017-03-07,0,70
2017-03-08,2,66
2017-03-09,0,76
2017-03-10,2,67
2017-03-11,0,54
2017-03-12,1,67
2017-03-13,0,60
2017-03-14,0,63
2017-03-15,0,69
2017-03-16,0,65
2017-03-17,0,71
2017-03-18,1,60
2017-03-19,0,64
2017-03-20,1,68
2017-03-21,0,62
2017-03-22,0,75
2017-03-23,0,67
2017-03-24,0,72
2017-03-25,0,61
2017-03-26,1,61
2017-03-27,2,64
2017-03-28,1,80
2017-03-29,0,59
2017-03-30,0,73
2017-03-31,1,65
2017-04-01,1,61
2017-04-02,0,63
2017-04-03,0,74
2017-04-04,1,60
2017-04-05,0,75
2017-04-06,0,69
2017-04-07,0,70
2017-04-08,0,65
2017-04-09,0,63
2017-04-10,0,72
2017-04-11,0,74
2017-04-12,0,65
2017-04-13,0,73
2017-04-14,0,57
2017-04-15,0,65
2017-04-16,0,47
2017-04-17,0,74
2017-04-18,0,54
2017-04-19,2,68
2017-04-20,1,68
2017-04-21,0,64
2017-04-22,0,0
2017-04-23,0,79
2017-04-24,0,49
2017-04-25,0,77
2017-04-26,0,56
2017-04-27,0,74
2017-04-28,0,53
2017-04-29,0,68
2017-04-30,1,46
2017-05-01,0,62
2017-05-02,0,67
2017-05-03,0,58
2017-05-04,1,63
2017-05-05,1,59
2017-05-06,0,59
2017-05-07,1,55
2017-05-08,2,60
2017-05-09,0,55
2017-05-10,0,59
2017-05-11,2,66
2017-05-12,1,70
2017-05-13,2,50
2017-05-14,0,60
2017-05-15,0,67
2017-05-16,0,60
2017-05-17,1,76
2017-05-18,1,60
2017-05-19,1,69
2017-05-20,0,57
2017-05-21,0,66
2017-05-22,0,68
2017-05-23,0,74
2017-05-24,1,65
2017-05-25,0,63
2017-05-26,3,66
2017-05-27,1,69
2017-05-28,0,56
2017-05-29,0,60
2017-05-30,0,73
2017-05-31,0,72
2017-06-01,0,57
2017-06-02,0,68
2017-06-03,1,69
2017-06-04,1,58
2017-06-05,0,68
2017-06-06,0,63
2017-06-07,0,74
2017-06-08,0,57
2017-06-09,0,65
2017-06-10,1,58
2017-06-11,1,60
2017-06-12,1,62
2017-06-13,2,58
2017-06-14,0,70
2017-06-15,0,57
2017-06-16,2,65
2017-06-17,0,59
2017-06-18,0,64
2017-06-19,0,67
2017-06-20,0,62
2017-06-21,1,68
2017-06-22,0,74
2017-06-23,0,48
2017-06-24,0,74
2017-06-25,0,53
2017-06-26,0,64
2017-06-27,1,69
2017-06-28,1,64
2017-06-29,0,65
2017-06-30,1,70
2017-07-01,1,64
2017-07-02,1,58
2017-07-03,0,57
2017-07-04,1,70
2017-07-05,0,53
2017-07-06,0,76
2017-07-07,1,47
2017-07-08,1,75
2017-07-09,0,56
2017-07-10,0,69
2017-07-11,1,53
2017-07-12,1,76
2017-07-13,0,64
2017-07-14,1,55
2017-07-15,1,60
2017-07-16,0,51
2017-07-17,1,62
2017-07-18,2,62
2017-07-19,0,52
2017-07-20,0,70
2017-07-21,1,74
2017-07-22,1,50
2017-07-23,0,51
2017-07-24,3,52
2017-07-25,0,62
2017-07-26,1,53
2017-07-27,1,67
2017-07-28,0,54
2017-07-29,1,58
2017-07-30,0,45
2017-07-31,0,59
2017-08-01,0,67
2017-08-02,0,64
2017-08-03,0,69
2017-08-04,0,55
2017-08-05,0,69
2017-08-06,1,53
2017-08-07,2,73
2017-08-08,0,55
2017-08-09,2,61
2017-08-10,0,57
2017-08-11,0,65
2017-08-12,1,59
2017-08-13,0,51
2017-08-14,0,60
2017-08-15,0,72
2017-08-16,0,49
2017-08-17,1,61
2017-08-18,1,60
2017-08-19,1,54
2017-08-20,0,53
2017-08-21,1,54
2017-08-22,2,64
2017-08-23,0,51
2017-08-24,1,57
2017-08-25,0,60
2017-08-26,0,48
2017-08-27,1,50
2017-08-28,1,60
2017-08-29,2,63
2017-08-30,2,64
2017-08-31,2,54
2017-09-01,0,58
2017-09-02,1,55
2017-09-03,0,54
2017-09-04,1,58
2017-09-05,2,61
2017-09-06,0,58
2017-09-07,1,69
2017-09-08,2,50
2017-09-09,0,65
2017-09-10,1,51
2017-09-11,2,67
2017-09-12,0,59
2017-09-13,0,51
2017-09-14,0,62
2017-09-15,0,52
2017-09-16,0,51
2017-09-17,0,55
2017-09-18,2,59
2017-09-19,0,59
2017-09-20,0,49
2017-09-21,1,62
2017-09-22,0,56
2017-09-23,1,59
2017-09-24,0,47
2017-09-25,1,70
2017-09-26,1,55
2017-09-27,1,66
2017-09-28,0,55
2017-09-29,3,60
2017-09-30,1,61
2017-10-01,1,58
2017-10-02,0,56
2017-10-03,0,53
2017-10-04,3,61
2017-10-05,1,65
2017-10-06,0,50
2017-10-07,0,72
2017-10-08,0,51
2017-10-09,0,55
2017-10-10,1,57
2017-10-11,0,54
2017-10-12,1,47
2017-10-13,0,56
2017-10-14,0,61
2017-10-15,0,58
2017-10-16,0,42
2017-10-17,0,59
2017-10-18,0,50
2017-10-19,1,63
2017-10-20,1,52
2017-10-21,2,63
2017-10-22,2,40
2017-10-23,0,61
2017-10-24,0,56
2017-10-25,1,54
2017-10-26,1,53
2017-10-27,0,55
2017-10-28,2,52
2017-10-29,2,49
2017-10-30,1,59
2017-10-31,1,57
2017-11-01,1,61
2017-11-02,0,53
2017-11-03,1,51
2017-11-04,1,54
2017-11-05,0,46
2017-11-06,0,36
2017-11-07,1,62
2017-11-08,0,50
2017-11-09,1,52
2017-11-10,0,50
2017-11-11,1,56
2017-11-12,1,52
2017-11-13,1,56
2017-11-14,1,62
2017-11-15,1,57
2017-11-16,0,50
2017-11-17,0,46
2017-11-18,0,46
2017-11-19,0,37
2017-11-20,1,45
2017-11-21,0,40
2017-11-22,0,40
2017-11-23,0,43
2017-11-24,0,42
2017-11-25,0,41
2017-11-26,0,41
2017-11-27,0,38
2017-11-28,1,49
2017-11-29,4,43
2017-11-30,0,46
2017-12-01,4,49
2017-12-02,1,40
2017-12-03,0,47
2017-12-04,2,35
2017-12-05,2,49
2017-12-06,1,42
2017-12-07,5,33
2017-12-08,2,55
2017-12-09,0,37
2017-12-10,1,46
2017-12-11,0,44
2017-12-12,1,49
2017-12-13,0,55
2017-12-14,0,38
2017-12-15,0,52
2017-12-16,0,45
2017-12-17,0,37
2017-12-18,0,38
2017-12-19,0,41
2017-12-20,0,39
2017-12-21,0,48
2017-12-22,0,43
2017-12-23,0,44
2017-12-24,1,37
2017-12-25,0,40
2017-12-26,1,38
2017-12-27,2,39
2017-12-28,1,43
2017-12-29,0,39
2017-12-30,0,41
2017-12-31,0,34
2018-01-01,0,40
2018-01-02,0,51
2018-01-03,0,43
2018-01-04,0,45
2018-01-05,1,44
2018-01-06,0,45
2018-01-07,1,48
2018-01-08,0,49
2018-01-09,0,44
2018-01-10,0,33
2018-01-11,0,46
2018-01-12,0,55
2018-01-13,1,39
2018-01-14,2,44
2018-01-15,0,44
2018-01-16,0,54
2018-01-17,1,52
2018-01-18,1,55
2018-01-19,0,46
2018-01-20,2,55
2018-01-21,1,57
2018-01-22,0,50
2018-01-23,1,51
2018-01-24,1,49
2018-01-25,0,46
2018-01-26,1,56
2018-01-27,0,46
2018-01-28,1,53
2018-01-29,1,54
2018-01-30,2,52
2018-01-31,0,58
2018-02-01,0,49
2018-02-02,0,43
2018-02-03,0,50
2018-02-04,0,45
2018-02-05,0,52
2018-02-06,0,53
2018-02-07,0,47
2018-02-08,0,46
2018-02-09,1,53
2018-02-10,0,49
2018-02-11,1,46
2018-02-12,0,52
2018-02-13,0,38
2018-02-14,1,44
2018-02-15,2,48
2018-02-16,0,44
2018-02-17,1,44
2018-02-18,0,46
2018-02-19,3,45
2018-02-20,2,43
2018-02-21,0,56
2018-02-22,1,50
2018-02-23,0,52
2018-02-24,1,51
2018-02-25,0,27
2018-02-26,0,49
2018-02-27,1,39
2018-02-28,0,29
2018-03-01,0,31
2018-03-02,2,42
2018-03-03,1,25
2018-03-04,1,36
2018-03-05,0,35
2018-03-06,0,35
2018-03-07,0,41
2018-03-08,0,40
2018-03-09,1,33
2018-03-10,0,42
2018-03-11,0,34
2018-03-12,0,43
2018-03-13,0,42
2018-03-14,0,41
2018-03-15,1,33
2018-03-16,0,39
2018-03-17,0,27
2018-03-18,1,42
2018-03-19,2,34
2018-03-20,3,44
2018-03-21,0,36
2018-03-22,0,36
2018-03-23,1,44
2018-03-24,2,29
2018-03-25,0,32
2018-03-26,0,38
2018-03-27,1,39
2018-03-28,1,35
2018-03-29,1,34
2018-03-30,0,37
2018-03-31,0,29
2018-04-01,1,30
2018-04-02,0,34
2018-04-03,0,39
2018-04-04,0,36
2018-04-05,2,39
2018-04-06,0,41
2018-04-07,1,33
2018-04-08,1,36
2018-04-09,2,37
2018-04-10,2,40
2018-04-11,0,39
2018-04-12,1,45
2018-04-13,0,45
2018-04-14,0,33
2018-04-15,0,40
2018-04-16,0,41
2018-04-17,1,35
2018-04-18,1,46
2018-04-19,1,41
2018-04-20,2,42
2018-04-21,1,44
2018-04-22,0,32
2018-04-23,1,43
2018-04-24,0,42
2018-04-25,0,40
2018-04-26,0,41
2018-04-27,0,34
2018-04-28,0,34
2018-04-29,0,34
2018-04-30,1,40
2018-05-01,0,44
2018-05-02,0,41
2018-05-03,0,44
2018-05-04,0,39
2018-05-05,0,41
2018-05-06,1,33
2018-05-07,0,45
2018-05-08,1,37
2018-05-09,0,31
2018-05-10,0,39
2018-05-11,0,40
2018-05-12,0,33
2018-05-13,0,35
2018-05-14,1,42
2018-05-15,0,34
2018-05-16,0,46
2018-05-17,0,46
2018-05-18,0,46
2018-05-19,1,28
2018-05-20,0,32
2018-05-21,0,41
2018-05-22,1,35
2018-05-23,1,39
2018-05-24,1,37
2018-05-25,0,32
2018-05-26,0,38
2018-05-27,0,28
2018-05-28,1,36
2018-05-29,0,40
2018-05-30,1,45
2018-05-31,0,40
2018-06-01,1,35
2018-06-02,0,30
2018-06-03,0,33
2018-06-04,1,35
2018-06-05,1,31
2018-06-06,1,37
2018-06-07,0,40
2018-06-08,2,37
2018-06-09,1,29
2018-06-10,0,31
2018-06-11,0,32
2018-06-12,0,33
2018-06-13,0,29
2018-06-14,0,30
2018-06-15,2,41
2018-06-16,0,37
2018-06-17,0,30
2018-06-18,0,37
2018-06-19,0,45
2018-06-20,2,37
2018-06-21,2,32
2018-06-22,1,39
2018-06-23,0,31
2018-06-24,0,32
2018-06-25,1,33
2018-06-26,1,37
2018-06-27,2,39
2018-06-28,0,40
2018-06-29,0,35
2018-06-30,0,38
2018-07-01,0,31
2018-07-02,0,42
2018-07-03,0,36
2018-07-04,0,22
2018-07-05,0,39
2018-07-06,1,36
2018-07-07,1,31
2018-07-08,0,25
2018-07-09,0,30
2018-07-10,1,34
2018-07-11,1,31
2018-07-12,2,27
2018-07-13,0,32
2018-07-14,1,30
2018-07-15,0,20
2018-07-16,0,33
2018-07-17,1,21
2018-07-18,1,33
2018-07-19,0,31
2018-07-20,0,30
2018-07-21,0,35
2018-07-22,0,32
2018-07-23,1,37
2018-07-24,1,35
2018-07-25,0,29
2018-07-26,0,27
2018-07-27,1,36
2018-07-28,0,37
2018-07-29,1,23
2018-07-30,2,35
2018-07-31,1,30
2018-08-01,0,29
2018-08-02,2,39
2018-08-03,0,36
2018-08-04,0,24
2018-08-05,0,29
2018-08-06,1,27
2018-08-07,0,30
2018-08-08,2,30
2018-08-09,1,31
2018-08-10,0,36
2018-08-11,0,30
2018-08-12,0,27
2018-08-13,0,31
2018-08-14,0,32
2018-08-15,0,33
2018-08-16,3,32
2018-08-17,2,24
2018-08-18,0,32
2018-08-19,0,25
2018-08-20,0,32
2018-08-21,0,37
2018-08-22,0,28
2018-08-23,0,28
2018-08-24,0,25
2018-08-25,0,28
2018-08-26,1,28
2018-08-27,0,31
2018-08-28,0,30
2018-08-29,1,30
2018-08-30,1,27
2018-08-31,1,27
2018-09-01,0,22
2018-09-02,1,24
2018-09-03,0,27
2018-09-04,0,24
2018-09-05,0,27
2018-09-06,0,22
2018-09-07,1,25
2018-09-08,1,24
2018-09-09,0,25
2018-09-10,0,27
2018-09-11,1,26
2018-09-12,0,27
2018-09-13,1,26
2018-09-14,2,24
2018-09-15,1,28
2018-09-16,0,25
2018-09-17,4,34
2018-09-18,1,32
2018-09-19,0,26
2018-09-20,0,31
2018-09-21,0,28
2018-09-22,0,24
2018-09-23,0,33
2018-09-24,0,27
2018-09-25,2,30
2018-09-26,0,30
2018-09-27,0,34
2018-09-28,0,25
2018-09-29,2,26
2018-09-30,2,26
2018-10-01,2,30
2018-10-02,1,29
2018-10-03,0,37
2018-10-04,0,29
2018-10-05,1,25
2018-10-06,1,29
2018-10-07,0,29
2018-10-08,0,25
2018-10-09,1,29
2018-10-10,1,26
2018-10-11,0,22
2018-10-12,1,28
2018-10-13,0,30
2018-10-14,0,22
2018-10-15,0,25
2018-10-16,0,26
2018-10-17,0,25
2018-10-18,1,32
2018-10-19,1,24
2018-10-20,1,24
2018-10-21,1,25
2018-10-22,1,25
2018-10-23,0,34
2018-10-24,0,26
2018-10-25,0,27
2018-10-26,0,24
2018-10-27,1,22
2018-10-28,1,24
2018-10-29,1,25
2018-10-30,0,26
2018-10-31,1,28
2018-11-01,0,25
2018-11-02,0,23
2018-11-03,0,23
2018-11-04,0,22
2018-11-05,0,24
2018-11-06,0,26
2018-11-07,0,24
2018-11-08,0,21
2018-11-09,0,27
2018-11-10,0,22
2018-11-11,1,26
2018-11-12,0,20
2018-11-13,0,28
2018-11-14,0,23
2018-11-15,0,24
2018-11-16,0,26
2018-11-17,2,17
2018-11-18,2,22
2018-11-19,0,27
2018-11-20,0,25
2018-11-21,1,25
2018-11-22,0,29
2018-11-23,0,20
2018-11-24,0,24
2018-11-25,0,22
2018-11-26,0,20
2018-11-27,0,23
2018-11-28,0,26
2018-11-29,0,15
2018-11-30,1,26
2018-12-01,0,25
2018-12-02,1,23
2018-12-03,0,27
2018-12-04,0,28
2018-12-05,0,23
2018-12-06,1,25
2018-12-07,0,22
2018-12-08,0,23
2018-12-09,1,18
2018-12-10,0,28
2018-12-11,1,22
2018-12-12,0,29
2018-12-13,0,28
2018-12-14,1,23
2018-12-15,0,24
2018-12-16,0,24
2018-12-17,0,26
2018-12-18,0,23
2018-12-19,0,21
2018-12-20,1,25
2018-12-21,0,19
2018-12-22,0,22
2018-12-23,0,19
2018-12-24,0,21
2018-12-25,0,21
2018-12-26,0,23
2018-12-27,1,24
2018-12-28,0,19
2018-12-29,0,28
2018-12-30,1,19
2018-12-31,0,25
2019-01-01,0,15
2019-01-02,0,18
2019-01-03,1,24
2019-01-04,0,24
2019-01-05,0,27
2019-01-06,0,19
2019-01-07,0,25
2019-01-08,1,22
2019-01-09,0,21
2019-01-10,0,25
2019-01-11,0,24
2019-01-12,1,15
2019-01-13,0,22
2019-01-14,1,24
2019-01-15,0,26
2019-01-16,0,28
2019-01-17,0,22
2019-01-18,0,23